Location: Abraham Lincoln Continuation High School
(33.9711°N, 117.3662°W)
Time: 00:37:51
(UTC+00:00)

NOSS 3-4 (A) - Visible Passes

Search period start: 24 January 2021 00:00
Search period end: 03 February 2021 00:00
Orbit: 879 x 1333 km, 63.4° (Epoch: 22 January)

Date Brightness Start Highest point End Pass type
(mag) Time Alt. Az. Time Alt. Az. Time Alt. Az.
01 Feb 5.9 04:05:08 10° N 04:05:44 12° N 04:05:44 12° N visible
02 Feb 5.7 03:21:27 10° N 03:22:39 12° NNE 03:22:39 12° NNE visible
02 Feb 6.3 05:10:01 10° NNW 05:10:06 10° NNW 05:10:06 10° NNW visible
